Weather Roundup
Issued by NWS Corpus Christi, TX

Home | Current Version | Previous Version | Text Only | Print | Product List | Glossary On
Versions: 1 2 3 4 5 6 7 8 9 10 11 12 13 14 15 16 17 18 19 20 21 22 23 24 25 26 27 28 29 30 31 32 33 34 35 36 37 38 39 40 41 42 43 44 45 46 47 48 49 50
000
ASUS44 KCRP 260610
HRRCRP

SOUTH TEXAS REGIONAL WEATHER ROUNDUP
NATIONAL WEATHER SERVICE CORPUS CHRISTI TX
1200 AM CST WED NOV 26 2014


TXZ229>244-260700-
...CORPUS CHRISTI AREA OBSERVATIONS...

CITY           SKY/WX    TMP DP  RH WIND       PRES   REMARKS
CORPUS CHRISTI CLEAR     47  43  86 S7        30.28S
NAS CORPUS CHR CLEAR     53  45  74 S8        30.28S
ROCKPORT       CLEAR     49  43  80 SW6       30.27S
KINGSVILLE NAS CLEAR     45  38  76 S3        30.29S
ALICE          CLEAR     46  37  71 S6        30.26F
FALFURRIAS     CLEAR     44  36  73 SW6       30.28F
$$

...VICTORIA AREA OBSERVATIONS...

CITY           SKY/WX    TMP DP  RH WIND       PRES   REMARKS
VICTORIA       CLEAR     48  39  71 SW7       30.26S
BEEVILLE       FAIR      47  38  71 SW3       30.26F
PLEASANTON     FLURRIES  46  33  61 S5        30.25S
SAN ANTONIO    CLEAR     48  33  56 W5        30.22F
$$

...LAREDO AREA OBSERVATIONS...

CITY           SKY/WX    TMP DP  RH WIND       PRES   REMARKS
LAREDO         CLEAR     48  35  60 S7        30.28F
COTULLA        CLEAR     44  35  70 CALM      30.25F
DEL RIO        CLEAR     45  32  60 SE3       30.20F
MCALLEN        CLEAR     46  40  79 SE5       30.31F
HEBBRONVILLE   CLEAR     44  35  69 S7        30.28F
$$

...OTHER TEXAS OBSERVATIONS...

CITY           SKY/WX    TMP DP  RH WIND       PRES   REMARKS
BROWNSVILLE    CLEAR     46  42  86 CALM      30.31F
HOUSTON        CLEAR     49  38  65 SW6       30.23S
COL. STATION   CLEAR     46  32  58 S6        30.21S
AUSTIN         CLEAR     43  34  70 W3        30.20F
WACO           CLEAR     41  33  73 SW9       30.16F
FORT WORTH     PTCLDY    41  30  65 S9        30.09F
WICHITA FALLS  CLEAR     46  28  49 S15       30.00F
LUBBOCK        CLEAR     42  11  28 W10       30.03F
EL PASO        PTCLDY    48   6  18 W3        30.27S
$$

...MARINE OBSERVATIONS...

STATION/POSITION TIME  SKY/WX   TEMP    WIND        PRES    VSBY  WAVE   SWELL
                                AIR SEA DIR/SP/G                  HT/PER HT/PER
                 (UTC)          (F)     (DEG/KT/KT) (MB)    (MI)  (FT/S) (FT/S)
PORT ARANSAS     0600            63 62  190/ 12/ 13 1025.8F
BUOY 90 E PORT A 0600            63 72   CALM  /  2 1025.5F         4/ 8   3/ 8
BUOY 45 SE BAFFI 0600            65 73  200/  4/  6 1026.0F         4/ 8   3/ 8
BUOY 200 E PT IS 0600            65 74   20/ 17/ 21 1024.0S         8/ 8   5/ 8
BUOY 15 E GALVES 0600            61 61  200/ 10/ 12 1023.7F         1/ 7   2/ 7
$$


USA.gov is the U.S. government's official web portal to all federal, state and local government web resources and services.